Wind_Speed
71 68 69 70 67 64 63 59 62 61 62 58 56 50 44 42 37 38 40 29 31 35 29 26 31 32 37 35 35 32 31 32 33 34 35 35 34 35 34 32 34 35 34 36
75 70 78 75 73 75 71 67 70 66 64 63 54 49 50 47 40 38 38 39 38 37 31 25 31 35 36 38 38 38 38 36 36 37 37 36 37 37 35 31 32 35 35 36
83 86 89 80 82 78 79 81 80 73 67 62 56 53 53 49 44 41 42 42 40 43 37 30 31 35 39 39 40 41 41 43 41 38 38 38 38 38 39 37 38 39 39 36
86 83 82 83 82 81 80 79 77 75 66 60 58 49 53 53 47 47 47 47 45 44 44 38 36 35 39 44 42 43 45 46 45 43 41 39 40 40 43 44 44 43 42 42
82 83 81 79 79 78 75 75 73 70 69 64 60 53 54 57 51 54 52 53 50 51 50 45 42 40 43 48 47 45 46 47 47 47 46 45 45 45 48 49 47 47 47 48
82 80 80 80 79 78 76 75 74 74 73 66 63 60 48 60 56 58 59 58 56 56 57 55 52 50 48 49 51 52 49 50 51 51 51 51 50 52 53 54 56 52 52 53
80 81 83 81 78 77 77 78 79 78 74 65 67 62 50 56 62 63 63 63 63 61 59 59 58 58 57 54 53 52 52 54 54 56 57 58 59 60 59 58 60 56 59 58
83 79 78 75 75 77 78 78 78 78 76 71 69 56 57 59 61 66 69 67 67 67 66 67 65 65 62 61 59 57 57 57 55 56 60 62 65 66 67 68 62 68 64 63
87 87 86 84 82 80 78 76 79 79 75 74 69 61 61 64 66 70 72 71 71 71 72 74 75 74 72 70 67 66 64 64 64 63 64 67 69 70 72 73 74 74 73 73
89 88 87 89 88 86 85 86 87 85 82 80 70 66 63 68 74 72 72 75 75 76 78 78 78 78 79 79 78 76 75 73 71 70 70 71 73 76 77 77 78 80 80 82
96 95 91 92 89 91 92 91 91 91 90 90 83 72 70 75 78 79 80 81 81 82 83 83 82 81 82 83 84 84 83 82 80 78 78 79 79 79 82 84 85 83 84 85
102 100 95 93 92 95 99 100 100 100 99 100 95 75 76 82 85 84 85 87 87 87 89 89 88 88 90 90 90 89 89 89 88 87 86 86 87 88 89 90 89 89 88 92
107 105 103 103 103 102 102 102 104 103 104 99 103 82 84 90 90 90 92 93 93 94 96 96 96 93 93 93 93 92 92 93 93 91 91 92 93 93 94 95 94 95 95 94
113 112 108 107 109 109 108 107 107 107 108 105 106 98 87 93 95 98 101 101 100 101 102 101 100 100 102 102 102 102 100 100 100 100 98 98 99 99 98 97 97 96 95 96
113 112 111 111 112 113 115 114 114 114 113 115 108 113 97 99 104 106 108 106 106 105 105 108 108 106 106 109 107 106 105 105 105 104 103 103 104 103 102 103 103 99 98 100
105 107 107 106 110 115 110 109 119 120 116 119 116 117 107 104 104 108 108 106 108 108 108 110 110 109 111 110 113 114 112 112 112 106 106 110 106 107 101 101 104 100 95 86
100 101 100 100 103 106 101 93 95 96 100 105 106 102 103 99 99 101 103 106 105 101 100 104 107 104 104 106 105 105 107 104 105 105 103 101 94 88 89 86 88 88 91 94
100 101 98 96 97 101 85 82 84 87 90 94 92 88 86 84 82 86 90 94 97 96 91 91 94 96 97 95 95 96 98 101 103 103 100 97 95 97 98 98 98 96 101 101
107 107 108 108 107 98 85 83 94 97 98 97 98 99 99 98 90 88 91 90 91 91 95 95 94 95 97 99 100 100 101 103 105 106 109 110 107 106 108 107 110 110 109 111
113 115 116 110 111 109 91 97 105 116 108 103 110 112 113 113 110 104 107 103 101 102 103 104 105 104 106 106 107 110 110 110 115 117 114 117 117 117 115 116 118 118 118 119
120 120 118 116 119 114 100 103 115 123 117 115 120 120 123 122 124 121 118 117 118 118 118 116 113 115 116 118 117 118 117 117 120 121 122 122 120 128 127 127 127 124 127 127
128 130 127 126 129 126 113 115 122 126 127 127 131 133 133 133 130 130 127 128 126 126 127 128 126 127 124 119 119 119 121 123 120 123 125 128 130 132 128 125 124 122 116 114
137 134 137 137 136 135 131 130 130 137 140 142 139 141 141 139 137 137 135 134 131 131 133 130 127 132 129 119 115 117 119 119 117 119 123 123 121 118 116 116 115 113 113 112
143 142 145 144 138 142 142 138 141 147 145 144 146 143 142 139 137 134 135 133 130 129 122 119 123 117 117 114 113 112 110 108 109 110 112 114 113 110 110 108 109 108 109 109
142 144 145 147 143 146 147 146 145 144 139 137 138 134 130 129 126 124 118 116 116 113 108 107 108 109 107 106 106 105 105 104 104 104 107 107 104 105 106 106 106 105 104 105
131 135 142 140 140 139 135 141 141 132 126 123 120 116 114 113 111 110 107 104 104 103 101 100 100 99 99 99 100 99 99 98 99 100 102 102 100 100 102 103 104 105 103 105
Wind_Direction
243 244 247 249 255 259 262 260 266 268 273 274 274 267 267 274 271 274 280 275 282 299 304 296 300 298 300 299 295 291 287 284 285 283 284 283 284 285 287 286 287 286 285 286
240 244 249 251 257 261 261 261 266 266 269 272 263 263 267 272 268 267 269 268 279 284 293 281 286 292 293 292 293 292 289 287 285 285 283 283 284 285 288 288 286 285 287 288
245 249 250 251 256 259 259 263 264 264 264 261 261 263 266 266 263 260 263 269 271 277 286 282 272 283 289 290 288 288 290 290 290 286 285 284 287 291 290 289 289 289 289 286
245 247 249 250 251 255 259 259 259 260 257 251 258 257 261 263 263 262 263 269 275 274 276 275 274 278 282 284 281 283 286 287 286 286 285 286 287 288 290 293 292 290 290 288
240 243 245 247 250 254 252 253 253 253 253 252 255 251 258 259 261 262 265 268 266 268 272 275 275 274 278 281 281 284 280 279 281 282 283 285 286 288 290 293 292 289 289 292
238 240 242 245 246 248 248 250 251 253 254 254 253 252 247 262 262 263 263 262 263 266 270 277 277 278 277 275 275 279 279 279 279 281 284 286 285 285 287 289 290 288 289 290
234 236 239 241 243 247 249 249 249 249 252 252 252 252 241 252 259 260 260 260 265 269 270 272 274 278 280 277 275 279 278 279 281 282 284 285 286 286 285 285 287 290 291 291
238 240 241 243 244 245 248 251 253 253 251 249 249 249 247 242 248 253 259 262 267 270 270 272 275 279 278 277 276 276 277 280 282 282 282 283 283 287 289 291 290 290 289 290
239 240 241 240 242 245 248 250 250 251 251 251 251 247 245 245 246 250 253 259 266 269 271 274 279 280 280 279 279 278 279 279 280 281 283 284 285 286 287 289 290 291 291 293
242 242 242 244 245 248 248 247 248 250 249 248 245 245 248 249 249 251 255 257 259 262 268 272 275 278 279 280 280 281 282 281 281 283 284 286 286 285 285 286 287 288 290 292
243 244 244 247 248 248 249 251 253 253 254 254 250 246 247 251 251 252 252 252 254 257 260 263 266 269 272 275 279 280 281 281 281 283 283 282 282 282 282 283 283 286 287 288
247 246 245 248 250 252 252 253 254 255 256 256 258 253 255 254 256 258 258 259 259 260 262 263 265 268 270 272 274 274 276 277 278 280 280 281 281 281 281 282 283 284 285 286
248 249 249 249 250 251 253 254 256 257 257 259 260 257 260 257 257 259 261 262 263 263 265 266 266 269 269 270 271 271 273 275 277 277 278 278 278 280 281 283 283 283 283 283
251 252 254 254 254 254 254 255 257 258 259 259 261 259 262 262 263 262 262 262 262 264 265 266 267 268 269 272 273 273 274 272 273 275 276 277 277 278 279 280 282 283 283 283
253 254 254 254 255 254 255 256 257 259 260 261 261 262 261 263 265 266 266 267 267 267 267 268 268 269 271 272 272 272 272 273 275 275 275 274 275 276 278 281 280 277 279 279
257 258 259 258 258 259 256 256 257 257 259 261 262 263 264 263 263 264 266 267 267 266 266 267 268 270 273 273 273 274 274 273 272 271 271 272 273 272 277 280 277 278 280 283
256 256 256 258 257 258 259 263 261 260 262 263 264 262 259 260 260 262 264 266 267 267 268 269 270 270 270 271 270 271 273 272 271 271 271 270 270 267 268 270 271 278 275 281
258 257 256 256 258 259 258 258 262 263 263 267 268 268 268 267 262 260 262 264 263 263 262 266 268 268 266 266 266 267 269 272 275 274 270 268 267 269 268 270 269 272 281 283
263 264 263 262 263 264 266 271 269 269 268 272 275 277 278 277 275 274 273 269 265 264 263 268 270 270 269 269 270 269 270 272 274 275 277 276 273 271 273 275 277 278 278 281
258 259 261 264 266 266 266 267 270 271 273 275 276 280 282 281 282 283 282 279 278 276 274 274 275 276 276 276 276 275 274 275 278 277 277 276 277 279 277 276 277 277 278 279
258 260 263 262 265 267 267 267 268 268 271 273 273 275 277 277 278 278 279 279 278 278 278 277 277 278 278 277 276 276 275 275 277 277 277 275 275 278 277 278 277 277 278 278
256 259 262 265 266 270 266 266 268 269 270 271 272 272 275 276 278 279 279 279 280 279 279 280 279 279 277 275 276 274 273 273 272 272 271 274 275 276 277 278 277 277 277 277
259 260 260 263 265 268 270 267 267 269 270 272 273 274 276 277 277 277 278 279 279 280 279 278 278 279 278 275 272 272 270 269 270 268 270 271 272 272 272 273 274 275 275 276
259 260 262 264 266 266 268 268 268 269 271 272 274 276 277 276 276 276 276 276 277 278 278 276 277 274 276 275 275 274 271 269 268 269 269 270 270 270 269 270 269 271 271 272
258 259 262 263 264 265 267 268 269 272 274 274 273 273 273 274 275 275 274 276 276 276 275 274 274 275 275 274 274 273 273 272 270 268 267 267 268 269 269 269 270 270 271 271
259 260 261 262 263 264 265 267 269 270 270 271 272 272 272 270 272 273 274 274 275 275 275 274 273 274 274 275 275 273 271 270 270 270 269 268 267 268 269 270 270 270 270 270
Height
10723 10730 10733 10733 10741 10748 10753 10757 10760 10765 10768 10776 10781 10781 10782 10784 10787 10785 10783 10783 10784 10785 10787 10785 10784 10783 10780 10781 10779 10779 10778 10776 10774 10772 10770 10767 10765 10763 10763 10762 10759 10756 10755 10753
10712 10716 10717 10724 10731 10734 10741 10744 10748 10755 10760 10768 10771 10773 10772 10776 10778 10777 10775 10773 10777 10778 10779 10779 10777 10774 10774 10773 10772 10770 10769 10769 10769 10766 10763 10760 10756 10754 10753 10754 10751 10749 10747 10744
10696 10701 10705 10711 10718 10722 10727 10732 10736 10741 10752 10754 10761 10768 10763 10765 10766 10767 10763 10762 10766 10768 10770 10771 10770 10768 10766 10766 10765 10762 10761 10760 10760 10760 10757 10754 10751 10747 10745 10743 10741 10738 10738 10737
10684 10691 10692 10698 10702 10706 10713 10719 10722 10729 10735 10745 10751 10763 10754 10752 10755 10753 10752 10752 10754 10757 10757 10757 10760 10760 10757 10755 10757 10756 10753 10751 10749 10749 10747 10746 10743 10740 10736 10734 10732 10729 10726 10725
10671 10672 10680 10685 10687 10693 10700 10701 10708 10713 10721 10734 10741 10750 10739 10741 10744 10739 10740 10737 10740 10739 10741 10745 10748 10750 10749 10746 10745 10747 10745 10742 10740 10739 10737 10737 10735 10731 10727 10723 10720 10719 10717 10714
10656 10660 10666 10670 10672 10678 10686 10687 10693 10700 10707 10724 10727 10731 10746 10725 10729 10727 10726 10722 10723 10726 10727 10730 10732 10735 10738 10737 10734 10731 10733 10733 10732 10730 10729 10726 10725 10722 10718 10714 10708 10705 10702 10702
10637 10645 10648 10655 10661 10666 10672 10672 10675 10683 10693 10713 10711 10717 10739 10726 10711 10709 10708 10707 10708 10711 10714 10715 10716 10719 10721 10722 10724 10724 10723 10722 10722 10720 10719 10716 10712 10710 10707 10704 10698 10692 10690 10687
10622 10631 10638 10641 10646 10647 10651 10659 10668 10673 10679 10689 10696 10715 10717 10716 10708 10694 10689 10693 10695 10696 10695 10695 10699 10703 10705 10707 10709 10711 10711 10711 10712 10711 10707 10704 10700 10696 10691 10686 10684 10677 10675 10673
10605 10614 10617 10623 10625 10628 10642 10647 10643 10649 10661 10670 10684 10698 10697 10696 10694 10686 10681 10681 10681 10678 10676 10677 10678 10682 10682 10686 10691 10693 10695 10695 10695 10695 10693 10689 10686 10681 10676 10672 10667 10662 10658 10655
10590 10596 10606 10610 10615 10619 10622 10623 10625 10628 10636 10645 10669 10676 10685 10678 10669 10675 10679 10673 10668 10666 10665 10665 10664 10663 10663 10663 10666 10669 10672 10673 10675 10676 10675 10672 10669 10663 10658 10654 10648 10645 10642 10636
10571 10582 10593 10593 10600 10600 10603 10606 10608 10612 10616 10625 10646 10667 10664 10655 10654 10655 10655 10655 10654 10652 10652 10653 10653 10651 10649 10646 10645 10645 10647 10649 10651 10653 10652 10650 10648 10643 10639 10634 10632 10630 10625 10619
10550 10561 10574 10576 10581 10582 10584 10588 10588 10592 10596 10598 10617 10661 10649 10638 10635 10639 10638 10634 10635 10639 10640 10638 10639 10639 10636 10632 10630 10631 10631 10630 10630 10630 10630 10628 10624 10621 10617 10613 10612 10610 10608 10601
10529 10540 10550 10557 10563 10567 10564 10562 10561 10570 10575 10593 10586 10636 10618 10615 10618 10617 10612 10611 10617 10617 10617 10619 10621 10621 10617 10616 10615 10615 10615 10611 10609 10608 10609 10606 10602 10599 10595 10592 10591 10588 10586 10583
10508 10517 10527 10535 10536 10541 10544 10544 10544 10547 10553 10569 10570 10589 10599 10589 10590 10592 10585 10588 10594 10594 10596 10596 10598 10597 10592 10592 10594 10593 10593 10589 10586 10587 10586 10584 10578 10575 10574 10570 10567 10565 10563 10558
10485 10495 10502 10509 10509 10512 10517 10525 10526 10525 10534 10532 10557 10544 10582 10564 10563 10562 10557 10566 10566 10570 10573 10572 10572 10572 10570 10565 10566 10566 10567 10562 10560 10563 10563 10560 10556 10553 10551 10549 10546 10543 10540 10534
10462 10468 10472 10480 10477 10475 10491 10509 10506 10508 10513 10503 10518 10518 10539 10546 10543 10531 10532 10538 10539 10541 10540 10541 10543 10543 10544 10544 10537 10533 10536 10532 10531 10533 10531 10529 10528 10527 10525 10524 10522 10518 10514 10510
10438 10440 10447 10452 10449 10450 10468 10491 10482 10486 10485 10476 10478 10499 10499 10513 10515 10513 10512 10511 10514 10517 10517 10515 10514 10513 10512 10513 10513 10506 10498 10500 10502 10503 10500 10499 10499 10500 10497 10496 10494 10493 10490 10487
10416 10418 10420 10426 10423 10426 10466 10467 10464 10455 10452 10445 10450 10461 10471 10480 10492 10490 10487 10489 10490 10489 10491 10489 10489 10486 10484 10486 10485 10483 10479 10474 10470 10468 10470 10471 10471 10471 10469 10468 10466 10464 10462 10460
10387 10388 10389 10393 10397 10413 10443 10451 10428 10418 10423 10427 10427 10428 10435 10438 10453 10464 10462 10462 10463 10464 10464 10463 10462 10462 10461 10461 10461 10457 10451 10449 10446 10443 10438 10434 10435 10436 10437 10438 10436 10435 10433 10431
10369 10365 10364 10375 10373 10383 10431 10425 10404 10380 10391 10412 10397 10397 10400 10400 10408 10428 10424 10426 10429 10429 10428 10431 10432 10433 10431 10429 10429 10428 10426 10419 10415 10412 10411 10408 10402 10401 10403 10402 10400 10400 10401 10398
10337 10339 10342 10350 10341 10355 10408 10408 10376 10353 10372 10377 10373 10375 10368 10373 10377 10390 10397 10402 10399 10398 10393 10391 10399 10399 10395 10395 10395 10394 10394 10390 10385 10380 10375 10373 10371 10369 10367 10368 10365 10363 10361 10357
10314 10310 10320 10321 10318 10326 10373 10367 10354 10339 10337 10342 10343 10345 10342 10344 10348 10350 10359 10361 10364 10360 10357 10353 10358 10355 10355 10359 10357 10355 10353 10351 10351 10347 10342 10339 10336 10333 10334 10331 10329 10328 10325 10321
10284 10296 10291 10295 10300 10304 10320 10331 10325 10308 10306 10303 10310 10311 10310 10314 10316 10317 10319 10324 10324 10322 10321 10317 10316 10314 10307 10310 10313 10316 10312 10312 10311 10309 10308 10305 10302 10301 10299 10296 10293 10290 10289 10288
10259 10266 10263 10266 10282 10275 10272 10283 10282 10269 10272 10276 10276 10276 10274 10276 10281 10283 10283 10287 10287 10287 10283 10279 10276 10272 10270 10269 10268 10269 10269 10270 10273 10271 10269 10266 10267 10268 10266 10266 10262 10260 10259 10257
10239 10238 10239 10230 10247 10236 10237 10237 10241 10238 10238 10245 10244 10245 10245 10239 10244 10242 10248 10247 10247 10249 10246 10243 10240 10236 10234 10233 10231 10230 10230 10231 10231 10233 10232 10233 10233 10232 10231 10230 10229 10229 10229 10225
10219 10210 10191 10200 10207 10197 10208 10210 10205 10207 10210 10207 10206 10213 10212 10210 10211 10211 10216 10216 10213 10214 10211 10211 10209 10206 10203 10201 10198 10197 10196 10196 10195 10195 10195 10197 10201 10200 10199 10198 10197 10196 10197 10193